Overview Statistics Trail Chart Weather Telemetry Raw packets
 

This is the latest recevied weather packets stored in our database for station/object KC9DRE. If no packets are shown the sender has not sent any weather packets the latest 10 day(s).

<< 107 108 109 110 111 112 113 >>
Time Temp. Humidity Pressure Rain* Wind** Luminosity Snow
1777068971 25° C 54% 1007.5 hPa 0 mm - 280 W/m² -
1777068668 25.56° C 55% 1007.4 hPa 0 mm - 144 W/m² -
1777068362 26.11° C 53% 1007.3 hPa 0 mm - 218 W/m² -
1777068057 26.11° C 53% 1007.4 hPa 0 mm - 286 W/m² -
1777067756 26.11° C 55% 1007.2 hPa 0 mm - 283 W/m² -
1777067450 26.11° C 55% 1007.4 hPa 0 mm - 266 W/m² -
1777067149 26.11° C 54% 1007.4 hPa 0 mm - 252 W/m² -
1777066845 26.11° C 54% 1007.4 hPa 0 mm - 303 W/m² -
1777066541 25.56° C 57% 1007.4 hPa 0 mm - 276 W/m² -
1777066237 25° C 57% 1007.4 hPa 0 mm - 272 W/m² -
1777065936 25.56° C 57% 1007 hPa 0 mm - 155 W/m² -
1777065633 26.11° C 56% 1007.5 hPa 0 mm - 266 W/m² -
1777065332 25.56° C 58% 1007.4 hPa 0 mm - 512 W/m² -
1777065028 25.56° C 62% 1007.3 hPa 0 mm - 479 W/m² -
1777064725 25° C 62% 1007.5 hPa 0 mm - 363 W/m² -
1777064422 25.56° C 63% 1007.8 hPa 0 mm - 347 W/m² -
1777064118 25.56° C 62% 1007.8 hPa 0 mm - 366 W/m² -
1777063818 25.56° C 64% 1007.8 hPa 0 mm - 485 W/m² -
1777063513 25° C 64% 1007.9 hPa 0 mm - 427 W/m² -
1777063209 24.44° C 66% 1008.1 hPa 0 mm - 299 W/m² -
1777062906 24.44° C 66% 1008.3 hPa 0 mm - 327 W/m² -
1777062602 23.89° C 67% 1008.4 hPa 0 mm - 280 W/m² -
1777062300 23.89° C 67% 1008.3 hPa 0 mm - 293 W/m² -
1777061998 23.33° C 68% 1008.3 hPa 0 mm - 306 W/m² -
1777061694 23.33° C 67% 1008.4 hPa 0 mm - 241 W/m² -

* Rain latest hour (hover to see other rain measurements)
** Current wind speed in m/s (hover to see current wind gust speed)